Location: Unspecified
(51.0950°N, 12.9690°E)
Time: 21:32:23
(UTC+00:00)

SL-08 R/B - Pass Details

Date: 28 October 2021
Orbit: 674 x 739 km, 98.5° (Epoch: 01 December)

Event Time Altitude Azimuth Distance (km) Brightness Sun altitude
Rises 16:20:23 0° 12° (NNE) 3,185 6.4 -5.5°
Reaches altitude 10° 16:22:42 10° 8° (N) 2,260 5.7 -5.9°
Maximum altitude 16:27:34 58° 291° (WNW) 861 4.1 -6.6°
Drops below altitude 10° 16:32:24 10° 213° (SSW) 2,237 6.6 -7.3°
Sets 16:34:41 0° 209° (SSW) 3,150 7.3 -7.7°
